This is the latest recevied weather packets stored in our database for station/object W4SNA-4. If no packets are shown the sender has not sent any weather packets the latest 10 day(s).
| Time | Temp. | Humidity | Pressure | Rain* | Wind** | Luminosity | Snow |
|---|---|---|---|---|---|---|---|
| 1787766653 | 28.33° C | 70% | 1013.6 hPa | 0 mm | - | - | - |
| 1787766351 | 28.33° C | 71% | 1013.6 hPa | 0 mm | - | - | - |
| 1787766051 | 28.33° C | 70% | 1013.7 hPa | 0 mm | - | - | - |
| 1787765750 | 28.33° C | 69% | 1013.7 hPa | 0 mm | - | - | - |
| 1787765454 | 28.89° C | 69% | 1013.7 hPa | 0 mm | - | - | - |
| 1787765154 | 28.89° C | 69% | 1014.1 hPa | 0 mm | - | - | - |
| 1787764854 | 28.89° C | 70% | 1014.1 hPa | 0 mm | - | - | - |
| 1787764553 | 28.33° C | 70% | 1014.1 hPa | 0 mm | - | - | - |
| 1787764253 | 28.33° C | 71% | 1014.3 hPa | 0 mm | - | - | - |
| 1787763953 | 28.33° C | 70% | 1014.3 hPa | 0 mm | - | - | - |
| 1787763652 | 28.33° C | 70% | 1014.3 hPa | 0 mm | - | - | - |
| 1787763352 | 28.33° C | 71% | 1014.3 hPa | 0 mm | - | - | - |
| 1787762788 | 28.33° C | 69% | 1014.3 hPa | 0 mm | - | - | - |
| 1787762487 | 28.33° C | 69% | 1014.3 hPa | 0 mm | - | - | - |
| 1787762187 | 27.78° C | 68% | 1014.6 hPa | 0 mm | - | - | - |
| 1787761888 | 27.78° C | 70% | 1014.6 hPa | 0 mm | - | - | - |
| 1787761587 | 27.78° C | 70% | 1014.6 hPa | 0 mm | - | - | - |
| 1787761288 | 27.78° C | 69% | 1014.9 hPa | 0 mm | - | - | - |
| 1787760988 | 27.78° C | 69% | 1014.9 hPa | 0 mm | - | - | - |
| 1787760688 | 27.78° C | 70% | 1014.9 hPa | 0 mm | - | - | - |
| 1787760388 | 27.78° C | 72% | 1014.9 hPa | 0 mm | - | - | - |
| 1787760087 | 27.22° C | 75% | 1014.9 hPa | 0 mm | - | - | - |
| 1787759787 | 27.22° C | 76% | 1014.9 hPa | 0 mm | - | - | - |
| 1787759488 | 26.67° C | 76% | 1015.1 hPa | 0 mm | - | - | - |
| 1787759187 | 26.67° C | 74% | 1015.1 hPa | 0 mm | - | - | - |
* Rain latest hour (hover to see other rain measurements)
** Current wind speed in m/s (hover to see current wind gust speed)